Find Orbcomm A3

NORAD ID: 25119 Int'l Des: 1997-084 Owner: ORBC Country: US Constellation: orbcomm operational
LEOCIRCULAR

現在のビュー

3D地球を読み込み中...

Orbcomm A3について

説明を読み込み中...

次回通過

Passes for default location (London). Set your location on the main map for personalized predictions.

高度履歴

Loading altitude history...

軌道要素

1 25119U 97084H 26150.12935015 .00001511 00000-0 44629-3 0 9992
2 25119 45.0120 140.3755 0002609 229.6434 130.4191 14.47513735491760
Epoch: May 30, 2026 • Age: 13 hours

現在のステータス

高度 743.3 km
速度 7.48 km/s
衛星直下点 -34.39°S, 35°W
打ち上げ日 Dec 23, 1997
運用期間 28.4 years
タイプ other

技術仕様

分類 Payload
質量 42.00 kg
乾燥質量 42.00 kg
総質量 42.00 kg
長さ 0.20 m
直径 1.00 m
スパン 4.30 m
形状 Cyl + 2 Pan + Ant
製造者 OSCG
バスタイプ Microstar
フェーズステータス Unknown Transfer Status
所有者/国 ORBC/US

Most Searched